FENGYUN 1C DEB, 30414

Orbit data source: Space-Track

FENGYUN 1C DEB, 30414 is space debris in SSO originally from a launch on Mon, 10 May 1999 UTC launched from the Taiyaun Space Center, China (TSC). Fengyun 1C debris stems from the Chinese weather satellite Fengyun-1C, which was intentionally destroyed by a Chinese anti-satellite missile in 2007. This event dramatically increased the amount of space debris, with thousands of trackable fragments posing hazards to satellites and human spaceflight. The Fengyun 1C debris cloud has become a focal point in discussions about space sustainability and the need for international regulations to prevent the creation of new debris.

Loading next visibility...
Identifier
30414, 1999-025AED
Orbit
SSO
Country
Flag of CNCN / PRC
Related business
Manufacturer
Unknown
Mission
Spacecraft
Bus & Motor
Unknown
Mass
Unknown
Launch date (UTC)
1999-05-10 (27 years ago)
Launch vehicle
Unknown
Launch site
Taiyaun Space Center, China (TSC)
Object type
Payload
Rocket body
Debris
Shape & HBR
Unknown shape, 0.1 m
Radar Cross Section
Small (<0.1 m²)

Expand to show TLE details & history
Last TLE update: 10 hours ago

TLE from 10 hours ago
0 FENGYUN 1C DEB
1 30414U 99025AED 26123.91476370  .00005762  00000-0  19577-2 0  9999
2 30414  99.0923 293.5935 0057850 132.4813 228.1281 14.36065531991264
Epoch: 2026-05-03T21:57Z
TLE epoch observation values (Epoch: 2026-05-03T21:57:15.583Z)
Latitude
-0.00003°
Longitude
102.4671°
Altitude
802.196 km
Speed
7.438 km/s
True Right ascension
19h 34m 22s
True Declination
0° 00' 00"
Sunlit
Object was in daylight at epoch
Visualization orbit readout
Latitude
Unknown
Longitude
Unknown
Altitude
Unknown
Speed
Unknown
Apparent Right ascension
Unknown
Apparent Declination
Unknown
Sunlit
N/A
Visualization observer readout
Local Sidereal Time
15:48:06
Azimuth
Unknown
Elevation
Unknown
Doppler factor
Unknown
Orbital elements
Apogee altitude
810.028 km
Perigee altitude
727.339 km
Semi-major axis
7,146.82 km
Eccentricity
0.00579
Inclination
99.0923°
RAAN
293.5935°
Arg. of periapsis
132.4813°
True anomaly
227.63685°
Mean anomaly
228.1281°
Eccentric anomaly
227.88224°
Mean motion
3.59231 °/min
Orbital period
100.21 mins
BSTAR
0.0019577
Loading maneuver chart data...
Computing Atmospheric mass density...
Loading historical data...
Loading historical data...
Loading historical data...
Loading historical data...
Loading historical data...
Loading historical data...
Loading historical data...

Documentation

Showing up to 5 results
|